,,,PA_Meas_PMT16A,,PR_Meas_QMR101_102,,RH_Meas_QMH101,,SR_Meas_QMS101,,TA_Meas_QMH101,,GenWind,,GenWind,
date,time,status,PA,status,PR,status,RH,status,SR,status,TA,status,DirAvg,status,SpdAvg,
2008-06-23, 00:00:04,VALID,1009.71,VALID,0,VALID,93.0799,VALID,0,VALID,23.2671,VALID,97,VALID,0,
2008-06-23, 00:01:04,VALID,1009.7,VALID,0,VALID,93.1791,VALID,0,VALID,23.2459,VALID,97,VALID,0,
2008-06-23, 00:02:04,VALID,1009.69,VALID,0,VALID,93.1562,VALID,0,VALID,23.2476,VALID,97,VALID,0,
2008-06-23, 00:03:04,VALID,1009.71,VALID,0,VALID,93.2858,VALID,0,VALID,23.2069,VALID,97,VALID,0,
2008-06-23, 00:04:04,VALID,1009.7,VALID,0,VALID,93.3545,VALID,0,VALID,23.2069,VALID,97,VALID,0,
2008-06-23, 00:05:04,VALID,1009.71,VALID,0,VALID,93.3926,VALID,0,VALID,23.2282,VALID,97,VALID,0,
2008-06-23, 00:06:04,VALID,1009.7,VALID,0,VALID,93.4231,VALID,0,VALID,23.2282,VALID,97,VALID,0.0769531,
2008-06-23, 00:07:04,VALID,1009.7,VALID,0,VALID,93.5451,VALID,0,VALID,23.2282,VALID,97,VALID,0,
2008-06-23, 00:08:04,VALID,1009.67,VALID,0,VALID,93.6519,VALID,0,VALID,23.2282,VALID,97,VALID,0,
2008-06-23, 00:09:04,VALID,1009.66,VALID,0,VALID,93.7281,VALID,0,VALID,23.2264,VALID,97,VALID,0,
2008-06-23, 00:10:04,VALID,1009.65,VALID,0,VALID,93.7281,VALID,0,VALID,23.2476,VALID,97,VALID,0,
2008-06-23, 00:11:04,VALID,1009.64,VALID,0,VALID,93.7434,VALID,0,VALID,23.2264,VALID,97,VALID,0,
2008-06-23, 00:12:04,VALID,1009.62,VALID,0,VALID,93.7434,VALID,0,VALID,23.2264,VALID,97,VALID,0,
2008-06-23, 00:13:04,VALID,1009.62,VALID,0,VALID,93.7129,VALID,0,VALID,23.2476,VALID,97,VALID,0,
2008-06-23, 00:14:04,VALID,1009.6,VALID,0,VALID,93.6442,VALID,0,VALID,23.2476,VALID,97,VALID,0,
2008-06-23, 00:15:04,VALID,1009.63,VALID,0,VALID,93.6137,VALID,0,VALID,23.2069,VALID,97,VALID,0.11875,
2008-06-23, 00:16:04,VALID,1009.65,VALID,0,VALID,93.7739,VALID,0,VALID,23.2476,VALID,97,VALID,0,
2008-06-23, 00:17:04,VALID,1009.66,VALID,0,VALID,93.9722,VALID,0,VALID,23.2848,VALID,97,VALID,0.0113281,
2008-06-23, 00:18:04,VALID,1009.67,VALID,0,VALID,94.0789,VALID,0,VALID,23.3043,VALID,97,VALID,0.1,
2008-06-23, 00:19:04,VALID,1009.66,VALID,0,VALID,93.9645,VALID,0,VALID,23.3238,VALID,97,VALID,0.194531,
2008-06-23, 00:20:04,VALID,1009.63,VALID,0,VALID,93.8273,VALID,0,VALID,23.3238,VALID,97,VALID,0,
2008-06-23, 00:21:04,VALID,1009.62,VALID,0,VALID,93.5909,VALID,0,VALID,23.3238,VALID,97,VALID,0,
2008-06-23, 00:22:04,VALID,1009.6,VALID,0,VALID,93.3163,VALID,0,VALID,23.3238,VALID,97,VALID,0,
2008-06-23, 00:23:04,VALID,1009.57,VALID,0,VALID,93.1486,VALID,0,VALID,23.3451,VALID,97,VALID,0,
2008-06-23, 00:24:04,VALID,1009.57,VALID,0,VALID,92.9732,VALID,0,VALID,23.3451,VALID,97,VALID,0,
2008-06-23, 00:25:04,VALID,1009.58,VALID,0,VALID,92.8283,VALID,0,VALID,23.3043,VALID,97,VALID,0,
2008-06-23, 00:26:04,VALID,1009.59,VALID,0,VALID,92.7444,VALID,0,VALID,23.2654,VALID,97,VALID,0,
2008-06-23, 00:27:04,VALID,1009.61,VALID,0,VALID,92.6758,VALID,0,VALID,23.2459,VALID,97,VALID,0,
2008-06-23, 00:28:04,VALID,1009.57,VALID,0,VALID,92.813,VALID,0,VALID,23.2476,VALID,97,VALID,0,
2008-06-23, 00:29:04,VALID,1009.56,VALID,0,VALID,92.8817,VALID,0,VALID,23.2069,VALID,97,VALID,0,
2008-06-23, 00:30:04,VALID,1009.54,VALID,0,VALID,93.1181,VALID,0,VALID,23.2476,VALID,97,VALID,0,
2008-06-23, 00:31:04,VALID,1009.51,VALID,0,VALID,93.3468,VALID,0,VALID,23.2069,VALID,97,VALID,0.109766,
2008-06-23, 00:32:04,VALID,1009.49,VALID,0,VALID,93.385,VALID,0,VALID,23.2087,VALID,97,VALID,0.140625,
2008-06-23, 00:33:04,VALID,1009.47,VALID,0,VALID,93.3011,VALID,0,VALID,23.1485,VALID,97,VALID,0,
2008-06-23, 00:34:04,VALID,1009.44,VALID,0,VALID,93.202,VALID,0,VALID,23.129,VALID,97,VALID,0,
2008-06-23, 00:35:04,VALID,1009.42,VALID,0,VALID,93.4917,VALID,0,VALID,23.1485,VALID,97,VALID,0,
2008-06-23, 00:36:04,VALID,1009.41,VALID,0,VALID,93.7358,VALID,0,VALID,23.1679,VALID,97,VALID,0,
2008-06-23, 00:37:04,VALID,1009.42,VALID,0,VALID,93.6824,VALID,0,VALID,23.1679,VALID,97,VALID,0.207422,
2008-06-23, 00:38:04,VALID,1009.42,VALID,0,VALID,93.629,VALID,0,VALID,23.1485,VALID,97,VALID,0.132031,
2008-06-23, 00:39:04,VALID,1009.42,VALID,0,VALID,93.69,VALID,0,VALID,23.1697,VALID,97,VALID,0.113672,
2008-06-23, 00:40:04,VALID,1009.37,VALID,0,VALID,93.5832,VALID,0,VALID,23.1679,VALID,97,VALID,0,
2008-06-23, 00:41:04,VALID,1009.34,VALID,0,VALID,93.5146,VALID,0,VALID,23.1485,VALID,97,VALID,0,
2008-06-23, 00:42:04,VALID,1009.34,VALID,0,VALID,93.4002,VALID,0,VALID,23.1485,VALID,97,VALID,0,
2008-06-23, 00:43:04,VALID,1009.29,VALID,0,VALID,93.2706,VALID,0,VALID,23.129,VALID,97,VALID,0,
2008-06-23, 00:44:04,VALID,1009.25,VALID,0,VALID,92.9961,VALID,0,VALID,23.0511,VALID,97,VALID,0,
2008-06-23, 00:45:04,VALID,1009.23,VALID,0,VALID,93.1333,VALID,0,VALID,23.0511,VALID,97,VALID,0,
2008-06-23, 00:46:04,VALID,1009.19,VALID,0,VALID,93.1791,VALID,0,VALID,23.0333,VALID,97,VALID,0,
2008-06-23, 00:47:04,VALID,1009.18,VALID,0,VALID,93.1257,VALID,0,VALID,22.9536,VALID,97,VALID,0,
2008-06-23, 00:48:04,VALID,1009.17,VALID,0,VALID,93.0647,VALID,0,VALID,22.9147,VALID,97,VALID,0,
2008-06-23, 00:49:04,VALID,1009.19,VALID,0,VALID,93.2248,VALID,0,VALID,22.8952,VALID,97,VALID,0,
2008-06-23, 00:50:04,VALID,1009.18,VALID,0,VALID,93.3163,VALID,0,VALID,22.8757,VALID,97,VALID,0,
2008-06-23, 00:51:04,VALID,1009.2,VALID,0,VALID,93.4994,VALID,0,VALID,22.8562,VALID,97,VALID,0,
2008-06-23, 00:52:04,VALID,1009.2,VALID,0,VALID,93.6061,VALID,0,VALID,22.8775,VALID,97,VALID,0,
2008-06-23, 00:53:04,VALID,1009.21,VALID,0,VALID,93.6976,VALID,0,VALID,22.8368,VALID,97,VALID,0,
2008-06-23, 00:54:04,VALID,1009.2,VALID,0,VALID,93.7815,VALID,0,VALID,22.8385,VALID,97,VALID,0,
2008-06-23, 00:55:04,VALID,1009.17,VALID,0,VALID,93.8349,VALID,0,VALID,22.8173,VALID,97,VALID,0,
2008-06-23, 00:56:04,VALID,1009.17,VALID,0,VALID,93.8349,VALID,0,VALID,22.8385,VALID,97,VALID,0,
2008-06-23, 00:57:04,VALID,1009.13,VALID,0,VALID,93.8578,VALID,0,VALID,22.7995,VALID,97,VALID,0,
2008-06-23, 00:58:04,VALID,1009.13,VALID,0,VALID,93.7815,VALID,0,VALID,22.7588,VALID,97,VALID,0,
2008-06-23, 00:59:04,VALID,1009.09,VALID,0,VALID,93.812,VALID,0,VALID,22.7394,VALID,97,VALID,0,
2008-06-23, 01:00:04,VALID,1009.08,VALID,0,VALID,93.8044,VALID,0,VALID,22.7588,VALID,97,VALID,0,
2008-06-23, 01:01:04,VALID,1009.06,VALID,0,VALID,93.7281,VALID,0,VALID,22.7588,VALID,97,VALID,0,
2008-06-23, 01:02:04,VALID,1009.09,VALID,0,VALID,93.8196,VALID,0,VALID,22.7588,VALID,97,VALID,0,
2008-06-23, 01:03:04,VALID,1009.06,VALID,0,VALID,93.934,VALID,0,VALID,22.7995,VALID,97,VALID,0,
2008-06-23, 01:04:04,VALID,1009.06,VALID,0,VALID,93.995,VALID,0,VALID,22.78,VALID,97,VALID,0,
2008-06-23, 01:05:04,VALID,1009.08,VALID,0,VALID,94.0103,VALID,0,VALID,22.78,VALID,97,VALID,0,
2008-06-23, 01:06:04,VALID,1009.07,VALID,0,VALID,93.9112,VALID,0,VALID,22.7394,VALID,97,VALID,0,
2008-06-23, 01:07:04,VALID,1009.06,VALID,0,VALID,93.8807,VALID,0,VALID,22.7394,VALID,97,VALID,0,
2008-06-23, 01:08:04,VALID,1009.07,VALID,0,VALID,93.9035,VALID,0,VALID,22.7004,VALID,97,VALID,0,
2008-06-23, 01:09:04,VALID,1009.05,VALID,0,VALID,94.0103,VALID,0,VALID,22.7004,VALID,97,VALID,0,
2008-06-23, 01:10:04,VALID,1009.05,VALID,0,VALID,94.0865,VALID,0,VALID,22.6809,VALID,97,VALID,0,
2008-06-23, 01:11:04,VALID,1009.05,VALID,0,VALID,94.0942,VALID,0,VALID,22.6614,VALID,97,VALID,0,
2008-06-23, 01:12:04,VALID,1009,VALID,0,VALID,94.0179,VALID,0,VALID,22.642,VALID,97,VALID,0,
2008-06-23, 01:13:04,VALID,1009.01,VALID,0,VALID,94.0713,VALID,0,VALID,22.6437,VALID,97,VALID,0,
2008-06-23, 01:14:04,VALID,1009.01,VALID,0,VALID,94.1094,VALID,0,VALID,22.603,VALID,97,VALID,0,
2008-06-23, 01:15:04,VALID,1009,VALID,0,VALID,94.1628,VALID,0,VALID,22.6437,VALID,97,VALID,0,
2008-06-23, 01:16:04,VALID,1009.01,VALID,0,VALID,94.1323,VALID,0,VALID,22.6437,VALID,20,VALID,0,
2008-06-23, 01:17:04,VALID,1009.05,VALID,0,VALID,94.1247,VALID,0,VALID,22.6225,VALID,18,VALID,0,
2008-06-23, 01:18:04,VALID,1009.06,VALID,0,VALID,94.0179,VALID,0,VALID,22.6225,VALID,2,VALID,0,
2008-06-23, 01:19:04,VALID,1009.06,VALID,0,VALID,93.9798,VALID,0,VALID,22.603,VALID,2,VALID,0,
2008-06-23, 01:20:04,VALID,1009.05,VALID,0,VALID,94.0255,VALID,0,VALID,22.6242,VALID,2,VALID,0,
2008-06-23, 01:21:04,VALID,1009.05,VALID,0,VALID,94.0027,VALID,0,VALID,22.6047,VALID,2,VALID,0,
2008-06-23, 01:22:04,VALID,1009.09,VALID,0,VALID,94.0484,VALID,0,VALID,22.5852,VALID,2,VALID,0,
2008-06-23, 01:23:04,VALID,1009.09,VALID,0,VALID,94.1171,VALID,0,VALID,22.5446,VALID,2,VALID,0,
2008-06-23, 01:24:04,VALID,1009.09,VALID,0,VALID,94.1857,VALID,0,VALID,22.5056,VALID,2,VALID,0,
2008-06-23, 01:25:04,VALID,1009.14,VALID,0,VALID,94.2848,VALID,0,VALID,22.5056,VALID,358,VALID,0,
2008-06-23, 01:26:04,VALID,1009.15,VALID,0,VALID,94.3458,VALID,0,VALID,22.4878,VALID,345,VALID,0,
2008-06-23, 01:27:04,VALID,1009.14,VALID,0,VALID,94.3001,VALID,0,VALID,22.4878,VALID,345,VALID,0,
2008-06-23, 01:28:04,VALID,1009.18,VALID,0,VALID,94.3534,VALID,0,VALID,22.4667,VALID,345,VALID,0,
2008-06-23, 01:29:04,VALID,1009.16,VALID,0,VALID,94.3382,VALID,0,VALID,22.4277,VALID,336,VALID,0.510547,
2008-06-23, 01:30:04,VALID,1009.2,VALID,0,VALID,94.3687,VALID,0,VALID,22.4082,VALID,335,VALID,0.523828,
2008-06-23, 01:31:04,VALID,1009.22,VALID,0,VALID,94.506,VALID,0,VALID,22.4277,VALID,332,VALID,0.454688,
2008-06-23, 01:32:04,VALID,1009.24,VALID,0,VALID,94.445,VALID,0,VALID,22.4489,VALID,332,VALID,0.426953,
2008-06-23, 01:33:04,VALID,1009.24,VALID,0,VALID,94.3916,VALID,0,VALID,22.4082,VALID,332,VALID,0.386719,
2008-06-23, 01:34:04,VALID,1009.25,VALID,0,VALID,94.3839,VALID,0,VALID,22.4099,VALID,332,VALID,0.303516,
2008-06-23, 01:35:04,VALID,1009.25,VALID,0,VALID,94.445,VALID,0,VALID,22.3693,VALID,332,VALID,0.399219,
2008-06-23, 01:36:04,VALID,1009.25,VALID,0,VALID,94.4831,VALID,0,VALID,22.3693,VALID,332,VALID,0.201953,
2008-06-23, 01:37:04,VALID,1009.22,VALID,0,VALID,94.4297,VALID,0,VALID,22.3498,VALID,332,VALID,0.110156,
2008-06-23, 01:38:04,VALID,1009.21,VALID,0,VALID,94.4678,VALID,0,VALID,22.3515,VALID,332,VALID,0.0605469,
2008-06-23, 01:39:04,VALID,1009.22,VALID,0,VALID,94.4907,VALID,0,VALID,22.371,VALID,332,VALID,0.0207031,
2008-06-23, 01:40:04,VALID,1009.21,VALID,0,VALID,94.5212,VALID,0,VALID,22.3303,VALID,332,VALID,0.126953,
2008-06-23, 01:41:04,VALID,1009.2,VALID,0,VALID,94.5517,VALID,0,VALID,22.3108,VALID,332,VALID,0,
2008-06-23, 01:42:04,VALID,1009.23,VALID,0,VALID,94.5822,VALID,0,VALID,22.2914,VALID,332,VALID,0,
2008-06-23, 01:43:04,VALID,1009.24,VALID,0,VALID,94.6127,VALID,0,VALID,22.3125,VALID,332,VALID,0,
2008-06-23, 01:44:04,VALID,1009.24,VALID,0,VALID,94.6737,VALID,0,VALID,22.2914,VALID,332,VALID,0,
2008-06-23, 01:45:04,VALID,1009.24,VALID,0,VALID,94.7195,VALID,0,VALID,22.2914,VALID,332,VALID,0.00507812,
2008-06-23, 01:46:04,VALID,1009.24,VALID,0,VALID,94.7576,VALID,0,VALID,22.2719,VALID,332,VALID,0.447266,
2008-06-23, 01:47:04,VALID,1009.25,VALID,0,VALID,94.7271,VALID,0,VALID,22.2719,VALID,333,VALID,0.293359,
2008-06-23, 01:48:04,VALID,1009.24,VALID,0,VALID,94.6508,VALID,0,VALID,22.2541,VALID,333,VALID,0.335938,
2008-06-23, 01:49:04,VALID,1009.26,VALID,0,VALID,94.6508,VALID,0,VALID,22.2329,VALID,2,VALID,0.414844,
2008-06-23, 01:50:04,VALID,1009.24,VALID,0,VALID,94.6661,VALID,0,VALID,22.2134,VALID,6,VALID,0.434766,
2008-06-23, 01:51:04,VALID,1009.23,VALID,0,VALID,94.7119,VALID,0,VALID,22.2134,VALID,6,VALID,0.133203,
2008-06-23, 01:52:04,VALID,1009.24,VALID,0,VALID,94.7195,VALID,0,VALID,22.2151,VALID,6,VALID,0.245312,
2008-06-23, 01:53:04,VALID,1009.24,VALID,0,VALID,94.7042,VALID,0,VALID,22.194,VALID,6,VALID,0.267578,
2008-06-23, 01:54:04,VALID,1009.27,VALID,0,VALID,94.6585,VALID,0,VALID,22.1957,VALID,6,VALID,0.104297,
2008-06-23, 01:55:04,VALID,1009.26,VALID,0,VALID,94.689,VALID,0,VALID,22.1745,VALID,57,VALID,0.462109,
2008-06-23, 01:56:04,VALID,1009.3,VALID,0,VALID,94.6661,VALID,0,VALID,22.155,VALID,57,VALID,0.259375,
2008-06-23, 01:57:04,VALID,1009.29,VALID,0,VALID,94.6585,VALID,0,VALID,22.1355,VALID,57,VALID,0.328125,
2008-06-23, 01:58:04,VALID,1009.31,VALID,0,VALID,94.6661,VALID,0,VALID,22.1161,VALID,57,VALID,0.0640625,
2008-06-23, 01:59:04,VALID,1009.31,VALID,0,VALID,94.6737,VALID,0,VALID,22.1372,VALID,57,VALID,0,
2008-06-23, 02:00:04,VALID,1009.3,VALID,0,VALID,94.6356,VALID,0,VALID,22.0771,VALID,57,VALID,0.0960938,
2008-06-23, 02:01:04,VALID,1009.28,VALID,0,VALID,94.6432,VALID,0,VALID,22.0983,VALID,57,VALID,0.269141,
2008-06-23, 02:02:04,VALID,1009.31,VALID,0,VALID,94.628,VALID,0,VALID,22.0382,VALID,57,VALID,0,
2008-06-23, 02:03:04,VALID,1009.26,VALID,0,VALID,94.6203,VALID,0,VALID,22.0382,VALID,57,VALID,0.01875,
2008-06-23, 02:04:04,VALID,1009.25,VALID,0,VALID,94.6966,VALID,0,VALID,22.0382,VALID,57,VALID,0.146875,
2008-06-23, 02:05:04,VALID,1009.27,VALID,0,VALID,94.7119,VALID,0,VALID,22.0187,VALID,57,VALID,0.165625,
2008-06-23, 02:06:04,VALID,1009.24,VALID,0,VALID,94.7576,VALID,0,VALID,22.0187,VALID,57,VALID,0.0410156,
2008-06-23, 02:07:04,VALID,1009.25,VALID,0,VALID,94.7729,VALID,0,VALID,22.0593,VALID,57,VALID,0,
2008-06-23, 02:08:04,VALID,1009.25,VALID,0,VALID,94.7881,VALID,0,VALID,22.0187,VALID,57,VALID,0.155078,
2008-06-23, 02:09:04,VALID,1009.26,VALID,0,VALID,94.7805,VALID,0,VALID,22.0187,VALID,57,VALID,0,
2008-06-23, 02:10:04,VALID,1009.2,VALID,0,VALID,94.8034,VALID,0,VALID,22.0187,VALID,57,VALID,0,
2008-06-23, 02:11:04,VALID,1009.24,VALID,0,VALID,94.811,VALID,0,VALID,21.9992,VALID,57,VALID,0,
2008-06-23, 02:12:04,VALID,1009.26,VALID,0,VALID,94.7881,VALID,0,VALID,21.9781,VALID,57,VALID,0,
2008-06-23, 02:13:04,VALID,1009.23,VALID,0,VALID,94.8339,VALID,0,VALID,21.9797,VALID,57,VALID,0,
2008-06-23, 02:14:04,VALID,1009.21,VALID,0,VALID,94.8491,VALID,0,VALID,21.9992,VALID,57,VALID,0.141797,
2008-06-23, 02:15:04,VALID,1009.19,VALID,0,VALID,94.9025,VALID,0,VALID,22.0187,VALID,57,VALID,0.335547,
2008-06-23, 02:16:04,VALID,1009.15,VALID,0,VALID,94.8796,VALID,0.105969,VALID,21.9992,VALID,57,VALID,0.211328,
2008-06-23, 02:17:04,VALID,1009.18,VALID,0,VALID,94.8873,VALID,0,VALID,21.9992,VALID,57,VALID,0.333203,
2008-06-23, 02:18:04,VALID,1009.15,VALID,0,VALID,94.872,VALID,0,VALID,22.0009,VALID,57,VALID,0.289844,
2008-06-23, 02:19:04,VALID,1009.14,VALID,0,VALID,94.8491,VALID,0,VALID,21.9814,VALID,57,VALID,0.154687,
2008-06-23, 02:20:04,VALID,1009.1,VALID,0,VALID,94.8262,VALID,0,VALID,21.9603,VALID,57,VALID,0.101563,
2008-06-23, 02:21:04,VALID,1009.1,VALID,0,VALID,94.7881,VALID,0,VALID,21.9213,VALID,57,VALID,0.111719,
2008-06-23, 02:22:04,VALID,1009.1,VALID,0,VALID,94.8339,VALID,0,VALID,21.9424,VALID,57,VALID,0.181641,
2008-06-23, 02:23:04,VALID,1009.05,VALID,0,VALID,94.872,VALID,0,VALID,21.9018,VALID,57,VALID,0.242969,
2008-06-23, 02:24:04,VALID,1009.06,VALID,0,VALID,94.8491,VALID,0,VALID,21.8824,VALID,57,VALID,0.292188,
2008-06-23, 02:25:04,VALID,1009.05,VALID,0,VALID,94.8415,VALID,0,VALID,21.8824,VALID,57,VALID,0.24375,
2008-06-23, 02:26:04,VALID,1009.02,VALID,0,VALID,94.8339,VALID,0,VALID,21.8629,VALID,57,VALID,0.195703,
2008-06-23, 02:27:04,VALID,1009.02,VALID,0,VALID,94.8873,VALID,0,VALID,21.884,VALID,57,VALID,0.388672,
2008-06-23, 02:28:04,VALID,1009.02,VALID,0,VALID,94.9101,VALID,0,VALID,21.9035,VALID,57,VALID,0.287109,
2008-06-23, 02:29:04,VALID,1009,VALID,0,VALID,94.9483,VALID,0,VALID,21.8824,VALID,57,VALID,0.222266,
2008-06-23, 02:30:04,VALID,1008.97,VALID,0,VALID,94.9559,VALID,0,VALID,21.8824,VALID,57,VALID,0.232031,
2008-06-23, 02:31:04,VALID,1008.98,VALID,0,VALID,94.9559,VALID,0,VALID,21.8824,VALID,57,VALID,0.320313,
2008-06-23, 02:32:04,VALID,1008.94,VALID,0,VALID,94.933,VALID,0,VALID,21.9018,VALID,57,VALID,0.222266,
2008-06-23, 02:33:04,VALID,1008.92,VALID,0,VALID,94.9406,VALID,0,VALID,21.9213,VALID,57,VALID,0.268359,
2008-06-23, 02:34:04,VALID,1008.93,VALID,0,VALID,94.933,VALID,0.105969,VALID,21.9213,VALID,57,VALID,0,
2008-06-23, 02:35:04,VALID,1008.94,VALID,0,VALID,94.8491,VALID,0,VALID,21.9213,VALID,57,VALID,0,
2008-06-23, 02:36:04,VALID,1008.9,VALID,0,VALID,94.8034,VALID,0.105969,VALID,21.9213,VALID,57,VALID,0,
2008-06-23, 02:37:04,VALID,1008.9,VALID,0,VALID,94.7729,VALID,0,VALID,21.9018,VALID,57,VALID,0,
2008-06-23, 02:38:04,VALID,1008.95,VALID,0,VALID,94.7195,VALID,0,VALID,21.9018,VALID,57,VALID,0,
2008-06-23, 02:39:04,VALID,1008.93,VALID,0,VALID,94.7042,VALID,0,VALID,21.9018,VALID,57,VALID,0,
2008-06-23, 02:40:04,VALID,1008.92,VALID,0,VALID,94.7424,VALID,0,VALID,21.9035,VALID,57,VALID,0,
2008-06-23, 02:41:04,VALID,1008.91,VALID,0,VALID,94.7729,VALID,0,VALID,21.9213,VALID,57,VALID,0,
2008-06-23, 02:42:04,VALID,1008.91,VALID,0,VALID,94.8186,VALID,0,VALID,21.9018,VALID,33,VALID,0.0636719,
2008-06-23, 02:43:04,VALID,1008.9,VALID,0,VALID,94.8034,VALID,0,VALID,21.9213,VALID,26,VALID,0.446875,
2008-06-23, 02:44:04,VALID,1008.92,VALID,0,VALID,94.7957,VALID,0,VALID,21.923,VALID,26,VALID,0.338281,
2008-06-23, 02:45:04,VALID,1008.93,VALID,0,VALID,94.8034,VALID,0,VALID,21.9035,VALID,26,VALID,0.269922,
2008-06-23, 02:46:04,VALID,1008.91,VALID,0,VALID,94.8186,VALID,0,VALID,21.8629,VALID,26,VALID,0.198437,
2008-06-23, 02:47:04,VALID,1008.92,VALID,0,VALID,94.7805,VALID,0,VALID,21.8434,VALID,26,VALID,0.301172,
2008-06-23, 02:48:04,VALID,1008.93,VALID,0,VALID,94.7424,VALID,0.105969,VALID,21.8239,VALID,26,VALID,0.2875,
2008-06-23, 02:49:04,VALID,1008.93,VALID,0,VALID,94.7347,VALID,0,VALID,21.785,VALID,26,VALID,0.266406,
2008-06-23, 02:50:04,VALID,1008.95,VALID,0,VALID,94.7347,VALID,0,VALID,21.7655,VALID,26,VALID,0.190234,
2008-06-23, 02:51:04,VALID,1008.92,VALID,0,VALID,94.7729,VALID,0,VALID,21.7866,VALID,26,VALID,0.00117188,
2008-06-23, 02:52:04,VALID,1008.92,VALID,0,VALID,94.7729,VALID,0,VALID,21.7266,VALID,26,VALID,0.00078125,
2008-06-23, 02:53:04,VALID,1008.94,VALID,0,VALID,94.811,VALID,0,VALID,21.7266,VALID,26,VALID,0.270312,
2008-06-23, 02:54:04,VALID,1008.9,VALID,0,VALID,94.8568,VALID,0,VALID,21.7266,VALID,26,VALID,0.101953,
2008-06-23, 02:55:04,VALID,1008.9,VALID,0,VALID,94.8491,VALID,0,VALID,21.7266,VALID,26,VALID,0.059375,
2008-06-23, 02:56:04,VALID,1008.91,VALID,0,VALID,94.8644,VALID,0,VALID,21.7282,VALID,26,VALID,0.183594,
2008-06-23, 02:57:04,VALID,1008.9,VALID,0,VALID,94.8644,VALID,0,VALID,21.6876,VALID,26,VALID,0,
2008-06-23, 02:58:04,VALID,1008.92,VALID,0,VALID,94.9101,VALID,0,VALID,21.6893,VALID,26,VALID,0.273047,
2008-06-23, 02:59:04,VALID,1008.89,VALID,0,VALID,94.8949,VALID,0,VALID,21.7087,VALID,26,VALID,0.209766,
2008-06-23, 03:00:04,VALID,1008.91,VALID,0,VALID,94.9178,VALID,0,VALID,21.6681,VALID,26,VALID,0.278906,
2008-06-23, 03:01:04,VALID,1008.96,VALID,0,VALID,94.9025,VALID,0,VALID,21.6487,VALID,26,VALID,0.180078,
2008-06-23, 03:02:04,VALID,1008.93,VALID,0,VALID,94.9483,VALID,0,VALID,21.6276,VALID,26,VALID,0.141406,
2008-06-23, 03:03:04,VALID,1008.91,VALID,0,VALID,94.9483,VALID,0,VALID,21.6487,VALID,26,VALID,0.222656,
2008-06-23, 03:04:04,VALID,1008.89,VALID,0,VALID,94.9254,VALID,0,VALID,21.6292,VALID,26,VALID,0.0582031,
2008-06-23, 03:05:04,VALID,1008.87,VALID,0,VALID,94.9483,VALID,0,VALID,21.6097,VALID,26,VALID,0,
2008-06-23, 03:06:04,VALID,1008.89,VALID,0,VALID,94.9788,VALID,0.105969,VALID,21.6097,VALID,26,VALID,0,
2008-06-23, 03:07:04,VALID,1008.87,VALID,0,VALID,94.9864,VALID,0,VALID,21.5902,VALID,26,VALID,0,
2008-06-23, 03:08:04,VALID,1008.86,VALID,0,VALID,95.0016,VALID,0,VALID,21.5902,VALID,26,VALID,0.128906,
2008-06-23, 03:09:04,VALID,1008.88,VALID,0,VALID,95.0321,VALID,0,VALID,21.5708,VALID,26,VALID,0,
2008-06-23, 03:10:04,VALID,1008.9,VALID,0,VALID,95.0703,VALID,0,VALID,21.5919,VALID,26,VALID,0,
2008-06-23, 03:11:04,VALID,1008.88,VALID,0,VALID,95.0855,VALID,0,VALID,21.5708,VALID,26,VALID,0,
2008-06-23, 03:12:04,VALID,1008.88,VALID,0,VALID,95.116,VALID,0.105969,VALID,21.5708,VALID,26,VALID,0,
2008-06-23, 03:13:04,VALID,1008.88,VALID,0,VALID,95.1389,VALID,0,VALID,21.5708,VALID,26,VALID,0,
2008-06-23, 03:14:04,VALID,1008.87,VALID,0,VALID,95.1084,VALID,0,VALID,21.5513,VALID,26,VALID,0,
2008-06-23, 03:15:04,VALID,1008.9,VALID,0,VALID,95.1313,VALID,0,VALID,21.5529,VALID,26,VALID,0,
2008-06-23, 03:16:04,VALID,1008.89,VALID,0,VALID,95.1236,VALID,0,VALID,21.5335,VALID,26,VALID,0,
2008-06-23, 03:17:04,VALID,1008.87,VALID,0,VALID,95.1389,VALID,0,VALID,21.5124,VALID,26,VALID,0,
2008-06-23, 03:18:04,VALID,1008.9,VALID,0,VALID,95.177,VALID,0,VALID,21.5124,VALID,26,VALID,0,
2008-06-23, 03:19:04,VALID,1008.88,VALID,0,VALID,95.1847,VALID,0,VALID,21.5124,VALID,26,VALID,0,
2008-06-23, 03:20:04,VALID,1008.87,VALID,0,VALID,95.2152,VALID,0,VALID,21.5124,VALID,26,VALID,0,
2008-06-23, 03:21:04,VALID,1008.87,VALID,0,VALID,95.2304,VALID,0,VALID,21.5124,VALID,26,VALID,0,
2008-06-23, 03:22:04,VALID,1008.88,VALID,0,VALID,95.2304,VALID,0,VALID,21.5124,VALID,26,VALID,0,
2008-06-23, 03:23:04,VALID,1008.89,VALID,0,VALID,95.2457,VALID,0.105969,VALID,21.4929,VALID,26,VALID,0,
2008-06-23, 03:24:04,VALID,1008.94,VALID,0,VALID,95.2762,VALID,0,VALID,21.4929,VALID,26,VALID,0,
2008-06-23, 03:25:04,VALID,1008.94,VALID,0,VALID,95.2914,VALID,0,VALID,21.4929,VALID,26,VALID,0,
2008-06-23, 03:26:04,VALID,1008.96,VALID,0,VALID,95.3219,VALID,0,VALID,21.4929,VALID,26,VALID,0,
2008-06-23, 03:27:04,VALID,1008.97,VALID,0,VALID,95.3372,VALID,0,VALID,21.4929,VALID,26,VALID,0,
2008-06-23, 03:28:04,VALID,1008.95,VALID,0,VALID,95.2685,VALID,0,VALID,21.4929,VALID,26,VALID,0,
2008-06-23, 03:29:04,VALID,1008.97,VALID,0,VALID,95.299,VALID,0,VALID,21.4734,VALID,26,VALID,0,
2008-06-23, 03:30:04,VALID,1008.96,VALID,0,VALID,95.3372,VALID,0,VALID,21.4929,VALID,26,VALID,0,
2008-06-23, 03:31:04,VALID,1008.92,VALID,0,VALID,95.3829,VALID,0,VALID,21.4929,VALID,26,VALID,0,
2008-06-23, 03:32:04,VALID,1008.94,VALID,0,VALID,95.3829,VALID,0,VALID,21.4929,VALID,26,VALID,0,
2008-06-23, 03:33:04,VALID,1008.94,VALID,0,VALID,95.3677,VALID,0,VALID,21.4945,VALID,26,VALID,0,
2008-06-23, 03:34:04,VALID,1008.94,VALID,0,VALID,95.3524,VALID,0,VALID,21.4945,VALID,26,VALID,0,
2008-06-23, 03:35:04,VALID,1008.94,VALID,0,VALID,95.3677,VALID,0,VALID,21.4539,VALID,27,VALID,0,
2008-06-23, 03:36:04,VALID,1008.96,VALID,0,VALID,95.36,VALID,0,VALID,21.4539,VALID,26,VALID,0,
2008-06-23, 03:37:04,VALID,1008.98,VALID,0,VALID,95.4287,VALID,0,VALID,21.4734,VALID,26,VALID,0,
2008-06-23, 03:38:04,VALID,1008.98,VALID,0,VALID,95.4439,VALID,0,VALID,21.4734,VALID,26,VALID,0,
2008-06-23, 03:39:04,VALID,1008.97,VALID,0,VALID,95.4744,VALID,0,VALID,21.4945,VALID,26,VALID,0,
2008-06-23, 03:40:04,VALID,1008.97,VALID,0,VALID,95.4668,VALID,0,VALID,21.4945,VALID,26,VALID,0,
2008-06-23, 03:41:04,VALID,1008.96,VALID,0,VALID,95.4439,VALID,0.105969,VALID,21.4734,VALID,26,VALID,0,
2008-06-23, 03:42:04,VALID,1008.92,VALID,0,VALID,95.4211,VALID,0,VALID,21.4539,VALID,26,VALID,0,
2008-06-23, 03:43:04,VALID,1008.94,VALID,0,VALID,95.4211,VALID,0,VALID,21.4539,VALID,26,VALID,0.0140625,
2008-06-23, 03:44:04,VALID,1008.93,VALID,0,VALID,95.4439,VALID,0,VALID,21.4345,VALID,26,VALID,0,
2008-06-23, 03:45:04,VALID,1008.94,VALID,0,VALID,95.4516,VALID,0,VALID,21.4539,VALID,26,VALID,0,
2008-06-23, 03:46:04,VALID,1008.92,VALID,0,VALID,95.4744,VALID,0,VALID,21.4345,VALID,26,VALID,0,
2008-06-23, 03:47:04,VALID,1008.95,VALID,0,VALID,95.4592,VALID,0,VALID,21.4539,VALID,26,VALID,0,
2008-06-23, 03:48:04,VALID,1008.92,VALID,0,VALID,95.4516,VALID,0,VALID,21.4556,VALID,26,VALID,0,
2008-06-23, 03:49:04,VALID,1008.87,VALID,0,VALID,95.4668,VALID,0,VALID,21.4345,VALID,26,VALID,0,
2008-06-23, 03:50:04,VALID,1008.87,VALID,0,VALID,95.4821,VALID,0.105969,VALID,21.4539,VALID,26,VALID,0,
2008-06-23, 03:51:04,VALID,1008.85,VALID,0,VALID,95.5126,VALID,0,VALID,21.4345,VALID,26,VALID,0,
2008-06-23, 03:52:04,VALID,1008.84,VALID,0,VALID,95.5049,VALID,0,VALID,21.4345,VALID,26,VALID,0,
2008-06-23, 03:53:04,VALID,1008.83,VALID,0,VALID,95.4821,VALID,0,VALID,21.4345,VALID,26,VALID,0,
2008-06-23, 03:54:04,VALID,1008.82,VALID,0,VALID,95.4973,VALID,0,VALID,21.4345,VALID,26,VALID,0,
2008-06-23, 03:55:04,VALID,1008.81,VALID,0,VALID,95.5126,VALID,0,VALID,21.4539,VALID,26,VALID,0,